Time,TemperatureF,DewpointF,PressureIn,WindDirection,WindDirectionDegrees,WindSpeedMPH,WindSpeedGustMPH,Humidity,HourlyPrecipIn,Conditions,Clouds,dailyrainin,SolarRadiationWatts/m^2,SoftwareType,DateUTC
2013-04-05 00:42:00,49.0,44.0,-100.00,West,266,0.0,7.0,84,-99.99,,,0.00,0.000000,,2013-04-05 07:42:00,
2013-04-05 00:52:00,49.0,44.0,-100.00,West,266,0.0,7.0,84,-99.99,,,0.00,0.000000,,2013-04-05 07:52:00,
2013-04-05 01:02:00,49.0,44.0,-100.00,West,266,0.0,7.0,84,-99.99,,,0.00,0.000000,,2013-04-05 08:02:00,
2013-04-05 01:12:00,49.0,44.0,-100.00,West,266,0.0,7.0,84,-99.99,,,0.00,0.000000,,2013-04-05 08:12:00,
2013-04-05 01:43:00,47.0,44.0,-100.00,WNW,290,3.0,8.0,89,0.00,,,0.00,0.000000,,2013-04-05 08:43:00,
2013-04-05 01:52:00,47.0,44.0,-100.00,WNW,290,3.0,8.0,89,0.00,,,0.00,0.000000,,2013-04-05 08:52:00,
2013-04-05 02:02:00,47.0,44.0,-100.00,WNW,290,3.0,8.0,89,0.00,,,0.00,0.000000,,2013-04-05 09:02:00,
2013-04-05 02:12:00,47.0,44.0,-100.00,WNW,290,3.0,8.0,89,0.00,,,0.00,0.000000,,2013-04-05 09:12:00,
2013-04-05 02:43:00,47.0,45.0,-100.00,WSW,239,2.0,8.0,93,0.00,,,0.00,0.000000,,2013-04-05 09:43:00,
2013-04-05 02:53:00,47.0,45.0,-100.00,WSW,239,2.0,8.0,93,0.00,,,0.00,0.000000,,2013-04-05 09:53:00,
2013-04-05 03:02:00,47.0,45.0,-100.00,WSW,239,2.0,8.0,93,0.00,,,0.00,0.000000,,2013-04-05 10:02:00,
2013-04-05 03:12:00,47.0,45.0,-100.00,WSW,239,2.0,8.0,93,0.00,,,0.00,0.000000,,2013-04-05 10:12:00,
2013-04-05 03:33:00,48.0,47.0,-100.00,WSW,246,4.0,7.0,96,0.00,,,0.00,0.000000,,2013-04-05 10:33:00,
2013-04-05 03:43:00,48.0,47.0,-100.00,WSW,246,4.0,7.0,96,0.00,,,0.00,0.000000,,2013-04-05 10:43:00,
2013-04-05 03:53:00,48.0,47.0,-100.00,WSW,246,4.0,7.0,96,0.00,,,0.00,0.000000,,2013-04-05 10:53:00,
2013-04-05 04:02:00,48.0,47.0,-100.00,WSW,246,4.0,7.0,96,0.00,,,0.00,0.000000,,2013-04-05 11:02:00,
2013-04-05 04:12:00,48.0,47.0,-100.00,WSW,246,4.0,7.0,96,0.00,,,0.00,0.000000,,2013-04-05 11:12:00,
2013-04-05 04:33:00,48.0,46.0,-100.00,WSW,249,2.0,7.0,92,0.00,,,0.00,0.000000,,2013-04-05 11:33:00,
2013-04-05 04:42:00,48.0,46.0,-100.00,WSW,249,2.0,7.0,92,0.00,,,0.00,0.000000,,2013-04-05 11:42:00,
2013-04-05 04:52:00,48.0,46.0,-100.00,WSW,249,2.0,7.0,92,0.00,,,0.00,0.000000,,2013-04-05 11:52:00,
2013-04-05 05:02:00,48.0,46.0,-100.00,WSW,249,2.0,7.0,92,0.00,,,0.00,0.000000,,2013-04-05 12:02:00,
2013-04-05 05:11:00,48.0,46.0,-100.00,WSW,249,2.0,7.0,92,0.00,,,0.00,0.000000,,2013-04-05 12:11:00,
2013-04-05 06:42:00,44.0,43.0,-100.00,WSW,245,2.0,8.0,95,-99.99,,,0.00,0.000000,,2013-04-05 13:42:00,
2013-04-05 06:52:00,44.0,43.0,-100.00,WSW,245,2.0,8.0,95,-99.99,,,0.00,0.000000,,2013-04-05 13:52:00,
2013-04-05 07:02:00,44.0,43.0,-100.00,WSW,245,2.0,8.0,95,-99.99,,,0.00,0.000000,,2013-04-05 14:02:00,
2013-04-05 07:12:00,44.0,43.0,-100.00,WSW,245,2.0,8.0,95,-99.99,,,0.00,0.000000,,2013-04-05 14:12:00,
2013-04-05 07:43:00,47.0,47.0,-100.00,SSW,204,0.0,6.0,99,0.00,,,0.00,30.000000,,2013-04-05 14:43:00,
2013-04-05 07:53:00,47.0,47.0,-100.00,SSW,204,0.0,6.0,99,0.00,,,0.00,30.000000,,2013-04-05 14:53:00,
2013-04-05 08:02:00,47.0,47.0,-100.00,SSW,204,0.0,6.0,99,0.00,,,0.00,30.000000,,2013-04-05 15:02:00,
2013-04-05 08:12:00,47.0,47.0,-100.00,SSW,204,0.0,6.0,99,0.00,,,0.00,30.000000,,2013-04-05 15:12:00,
2013-04-05 08:33:00,52.0,49.0,-100.00,SSW,207,3.0,9.0,89,0.00,,,0.00,194.000000,,2013-04-05 15:33:00,
2013-04-05 08:43:00,52.0,49.0,-100.00,SSW,207,3.0,9.0,89,0.00,,,0.00,194.000000,,2013-04-05 15:43:00,
2013-04-05 08:53:00,52.0,49.0,-100.00,SSW,207,3.0,9.0,89,0.00,,,0.00,194.000000,,2013-04-05 15:53:00,
2013-04-05 09:02:00,52.0,49.0,-100.00,SSW,207,3.0,9.0,89,0.00,,,0.00,194.000000,,2013-04-05 16:02:00,
2013-04-05 09:13:00,52.0,49.0,-100.00,SSW,207,3.0,9.0,89,0.00,,,0.00,194.000000,,2013-04-05 16:13:00,
2013-04-05 09:33:00,56.0,47.0,-100.00,SSW,196,4.0,11.0,72,0.00,,,0.00,530.000000,,2013-04-05 16:33:00,
2013-04-05 09:43:00,56.0,47.0,-100.00,SSW,196,4.0,11.0,72,0.00,,,0.00,530.000000,,2013-04-05 16:43:00,
2013-04-05 09:52:00,56.0,47.0,-100.00,SSW,196,4.0,11.0,72,0.00,,,0.00,530.000000,,2013-04-05 16:52:00,
2013-04-05 10:02:00,56.0,47.0,-100.00,SSW,196,4.0,11.0,72,0.00,,,0.00,530.000000,,2013-04-05 17:02:00,
2013-04-05 10:12:00,56.0,47.0,-100.00,SSW,196,4.0,11.0,72,0.00,,,0.00,530.000000,,2013-04-05 17:12:00,
2013-04-05 10:33:00,58.0,45.0,-100.00,SSW,194,10.0,13.0,61,0.00,,,0.00,820.000000,,2013-04-05 17:33:00,
2013-04-05 10:45:00,58.0,45.0,-100.00,SSW,194,10.0,13.0,61,0.00,,,0.00,820.000000,,2013-04-05 17:45:00,
2013-04-05 10:52:00,58.0,45.0,-100.00,SSW,194,10.0,13.0,61,0.00,,,0.00,820.000000,,2013-04-05 17:52:00,
2013-04-05 11:02:00,58.0,45.0,-100.00,SSW,194,10.0,13.0,61,0.00,,,0.00,820.000000,,2013-04-05 18:02:00,
2013-04-05 11:11:00,58.0,45.0,-100.00,SSW,194,10.0,13.0,61,0.00,,,0.00,820.000000,,2013-04-05 18:11:00,
2013-04-05 11:43:00,60.0,48.0,-100.00,SSW,200,7.0,14.0,65,0.00,,,0.00,1021.000000,,2013-04-05 18:43:00,
2013-04-05 11:52:00,60.0,48.0,-100.00,SSW,200,7.0,14.0,65,0.00,,,0.00,1021.000000,,2013-04-05 18:52:00,
2013-04-05 12:02:00,60.0,48.0,-100.00,SSW,200,7.0,14.0,65,0.00,,,0.00,1021.000000,,2013-04-05 19:02:00,
2013-04-05 12:12:00,60.0,48.0,-100.00,SSW,200,7.0,14.0,65,0.00,,,0.00,1021.000000,,2013-04-05 19:12:00,
2013-04-05 12:42:00,59.0,46.0,-100.00,SSW,211,7.0,16.0,62,0.00,,,0.00,1154.000000,,2013-04-05 19:42:00,
2013-04-05 12:52:00,59.0,46.0,-100.00,SSW,211,7.0,16.0,62,0.00,,,0.00,1154.000000,,2013-04-05 19:52:00,
2013-04-05 13:02:00,59.0,46.0,-100.00,SSW,211,7.0,16.0,62,0.00,,,0.00,1154.000000,,2013-04-05 20:02:00,
2013-04-05 13:10:00,59.0,46.0,-100.00,SSW,211,7.0,16.0,62,0.00,,,0.00,1154.000000,,2013-04-05 20:10:00,
2013-04-05 13:33:00,61.0,47.0,-100.00,South,187,12.0,17.0,59,0.00,,,0.00,1192.000000,,2013-04-05 20:33:00,
2013-04-05 13:43:00,61.0,47.0,-100.00,South,187,12.0,17.0,59,0.00,,,0.00,1192.000000,,2013-04-05 20:43:00,
2013-04-05 13:52:00,61.0,47.0,-100.00,South,187,12.0,17.0,59,0.00,,,0.00,1192.000000,,2013-04-05 20:52:00,
2013-04-05 14:02:00,61.0,47.0,-100.00,South,187,12.0,17.0,59,0.00,,,0.00,1192.000000,,2013-04-05 21:02:00,
2013-04-05 14:12:00,61.0,47.0,-100.00,South,187,12.0,17.0,59,0.00,,,0.00,1192.000000,,2013-04-05 21:12:00,
2013-04-05 14:44:00,60.0,45.0,-100.00,WSW,243,9.0,17.0,57,0.00,,,0.00,1036.000000,,2013-04-05 21:44:00,
2013-04-05 14:54:00,60.0,45.0,-100.00,WSW,243,9.0,17.0,57,0.00,,,0.00,1036.000000,,2013-04-05 21:54:00,
2013-04-05 15:02:00,60.0,45.0,-100.00,WSW,243,9.0,17.0,57,0.00,,,0.00,1036.000000,,2013-04-05 22:02:00,
2013-04-05 15:12:00,60.0,45.0,-100.00,WSW,243,9.0,17.0,57,0.00,,,0.00,1036.000000,,2013-04-05 22:12:00,
2013-04-05 15:44:00,60.0,43.0,-100.00,West,264,10.0,20.0,54,0.00,,,-99.99,866.000000,,2013-04-05 22:44:00,
2013-04-05 15:53:00,60.0,43.0,-100.00,West,264,10.0,20.0,54,0.00,,,-99.99,866.000000,,2013-04-05 22:53:00,
2013-04-05 16:02:00,60.0,43.0,-100.00,West,264,10.0,20.0,54,0.00,,,-99.99,866.000000,,2013-04-05 23:02:00,
2013-04-05 16:12:00,60.0,43.0,-100.00,West,264,10.0,20.0,54,0.00,,,-99.99,866.000000,,2013-04-05 23:12:00,
2013-04-05 16:42:00,63.0,47.0,-100.00,West,265,10.0,18.0,56,0.00,,,0.00,736.000000,,2013-04-05 23:42:00,
2013-04-05 16:52:00,63.0,47.0,-100.00,West,265,10.0,18.0,56,0.00,,,0.00,736.000000,,2013-04-05 23:52:00,
2013-04-05 17:02:00,63.0,47.0,-100.00,West,265,10.0,18.0,56,0.00,,,0.00,736.000000,,2013-04-06 00:02:00,
2013-04-05 17:12:00,63.0,47.0,-100.00,West,265,10.0,18.0,56,0.00,,,0.00,736.000000,,2013-04-06 00:12:00,
2013-04-05 18:33:00,56.0,45.0,-100.00,WSW,257,6.0,18.0,66,-99.99,,,0.00,256.000000,,2013-04-06 01:33:00,
2013-04-05 18:43:00,56.0,45.0,-100.00,WSW,257,6.0,18.0,66,-99.99,,,0.00,256.000000,,2013-04-06 01:43:00,
2013-04-05 18:53:00,56.0,45.0,-100.00,WSW,257,6.0,18.0,66,-99.99,,,0.00,256.000000,,2013-04-06 01:53:00,
2013-04-05 19:02:00,56.0,45.0,-100.00,WSW,257,6.0,18.0,66,-99.99,,,0.00,256.000000,,2013-04-06 02:02:00,
2013-04-05 19:12:00,56.0,45.0,-100.00,WSW,257,6.0,18.0,66,-99.99,,,0.00,256.000000,,2013-04-06 02:12:00,
2013-04-05 19:43:00,54.0,47.0,-100.00,West,276,7.0,14.0,78,0.00,,,0.00,55.000000,,2013-04-06 02:43:00,
2013-04-05 19:52:00,54.0,47.0,-100.00,West,276,7.0,14.0,78,0.00,,,0.00,55.000000,,2013-04-06 02:52:00,
2013-04-05 20:02:00,54.0,47.0,-100.00,West,276,7.0,14.0,78,0.00,,,0.00,55.000000,,2013-04-06 03:02:00,
2013-04-05 20:12:00,54.0,47.0,-100.00,West,276,7.0,14.0,78,0.00,,,0.00,55.000000,,2013-04-06 03:12:00,
2013-04-05 20:43:00,51.0,47.0,-100.00,SW,235,9.0,14.0,87,0.00,,,0.00,0.000000,,2013-04-06 03:43:00,
2013-04-05 20:53:00,51.0,47.0,-100.00,SW,235,9.0,14.0,87,0.00,,,0.00,0.000000,,2013-04-06 03:53:00,
2013-04-05 21:03:00,51.0,47.0,-100.00,SW,235,9.0,14.0,87,0.00,,,0.00,0.000000,,2013-04-06 04:03:00,
2013-04-05 21:13:00,51.0,47.0,-100.00,SW,235,9.0,14.0,87,0.00,,,0.00,0.000000,,2013-04-06 04:13:00,
2013-04-05 21:43:00,51.0,50.0,-100.00,SSW,195,6.0,12.0,95,0.00,,,0.00,0.000000,,2013-04-06 04:43:00,
2013-04-05 21:53:00,51.0,50.0,-100.00,SSW,195,6.0,12.0,95,0.00,,,0.00,0.000000,,2013-04-06 04:53:00,
2013-04-05 22:02:00,51.0,50.0,-100.00,SSW,195,6.0,12.0,95,0.00,,,0.00,0.000000,,2013-04-06 05:02:00,
2013-04-05 22:12:00,51.0,50.0,-100.00,SSW,195,6.0,12.0,95,0.00,,,0.00,0.000000,,2013-04-06 05:12:00,
2013-04-05 22:43:00,49.0,48.0,-100.00,SSW,212,4.0,10.0,97,0.00,,,0.00,0.000000,,2013-04-06 05:43:00,
2013-04-05 22:52:00,49.0,48.0,-100.00,SSW,212,4.0,10.0,97,0.00,,,0.00,0.000000,,2013-04-06 05:52:00,
2013-04-05 23:02:00,49.0,48.0,-100.00,SSW,212,4.0,10.0,97,0.00,,,0.00,0.000000,,2013-04-06 06:02:00,
2013-04-05 23:12:00,49.0,48.0,-100.00,SSW,212,4.0,10.0,97,0.00,,,0.00,0.000000,,2013-04-06 06:12:00,
2013-04-05 23:43:00,48.0,47.0,-100.00,SSW,209,2.0,10.0,98,0.00,,,-99.99,0.000000,,2013-04-06 06:43:00,
2013-04-05 23:52:00,48.0,47.0,-100.00,SSW,209,2.0,10.0,98,0.00,,,-99.99,0.000000,,2013-04-06 06:52:00,